KEPLER-11 (DANEEL) (47503 NORAD) Tracking and Keplerian Element Data

This shows tracking and keplerian element data for the satellite.

Feedback or suggestion? Click here.




ElementValue
Catalog47503
NameKEPLER-11 (DANEEL)
Epoch Orbit1168
Epoch Day99.90390443
Epoch Year2021
RAAN162.2987
Inclination97.4982
Eccentricity0.0009292
Argument of Perigee358.7145
Mean Anonmoly1.406
Mean Motion15.12242881
Decay Rate7.81E-06
L11 47503U 21006CU 21099.90390443 .00000781 00000-0 48885-4 0 9994
L22 47503 97.4982 162.2987 0009292 358.7145 1.4060 15.12242881 11681

Live tracking and technical data element details for KEPLER-11 (DANEEL) (NORAD 47503). KEPLER-11 (DANEEL) can be tracked NOW for your location showing map with azimuth and elevation plus other details from your city location.

Track the satellite on the map from your city or location and see movement details for azimuth, elevation, latitude, longitude, range, height, and movement on the map or in text.







IsCatalogInMostPopularTable: catalog: 47503, numindb: 15
Update: records affected: 1



GetName: 47503 KEPLER-11 (DANEEL)

Hit Count: updated at: Sat, 10 Apr 2021 18:32:33 GMT